Location: Aalen
(48.8330°N, 10.1000°E)
Time: 17:13:27
(UTC+02:00)

UWE-3 - Pass Details

Date: 04 April 2023
Orbit: 576 x 669 km, 97.7° (Epoch: 02 June)

Event Time Altitude Azimuth Distance (km) Brightness Sun altitude
Rises 02:52:18 0° 32° (NNE) 2,959 ? -32.2°
Reaches altitude 10° 02:56:14 10° 67° (ENE) 2,015 ? -31.9°
Maximum altitude 02:57:34 11° 85° (E) 1,922 ? -31.8°
Enters shadow 02:58:07 11° 93° (E) 1,931 ? -31.8°
